Regional Weather Roundup
Issued by NWS New Orleans/Baton Rouge, LA

Home | Current Version | Previous Version | Text Only | Print | Product List | Glossary Off
Versions: 1 2 3 4 5 6 7 8 9 10 11 12 13 14 15 16 17 18 19 20 21 22 23 24 25 26 27 28 29 30 31 32 33 34 35 36 37 38 39 40 41 42 43 44 45 46 47 48 49 50

572
ASUS44 KLIX 270311
RWRLIX
NEW ORLEANS REGIONAL WEATHER ROUNDUP
NATIONAL WEATHER SERVICE NEW ORLEANS LA
1000 PM CDT THU MAR 26 2015

NOTE: "FAIR" INDICATES FEW OR NO CLOUDS BELOW 12,000 FEET WITH NO
      SIGNIFICANT WEATHER AND/OR OBSTRUCTIONS TO VISIBILITY.
      SKY/WX - SKY CONDITION AND SIGNIFICANT WEATHER.
      TMP - AIR TEMPERATURE.     DP    - DEWPOINT TEMPERATURE.
      RH  - RELATIVE HUMIDITY.   PRES  - PRESSURE.
      HI  - HEAT INDEX.          WCI   - WIND CHILL INDEX.

*  THESE STATIONS ARE NOT NWS OR FAA STATIONS AND ARE NOT UNDER
   NWS QUALITY CONTROL.

LAZ038-040-048-061>063-065>067-069-270400-
SOUTHEAST LOUISIANA

CITY           SKY/WX    TMP DP  RH WIND       PRES   REMARKS
N.O. AUDUBON     N/A     63 N/A N/A MISG        N/A
N.O. INTL ARPT CLOUDY    64  61  90 SW3       29.89R
N.O. LAKEFRONT CLOUDY    68  61  78 W8        29.90R
SLIDELL        CLOUDY    63  62  97 CALM      29.88R
BATON ROUGE    CLOUDY    57  53  86 NW8       29.96R
BOOTHVILLE     MOCLDY    62  60  93 W3        29.90R
BELLE CHASSE   MOCLDY    65  62  90 CALM      29.89R
BOGALUSA*        N/A     66  63  88 NW16G24   29.90R
GALLIANO*      PTCLDY    54  53  97 CALM      29.90S FOG
NEW ROADS*     CLOUDY    55  49  81 NW12G18   30.00R
GONZALES*      CLOUDY    62  62  99 NW17G25   29.92R
HAMMOND*       LGT RAIN  63  59  88 N18G29    29.92R
HOUMA*         CLOUDY    64  64  98 NW3       29.90R
PORT FOURCHON* MOCLDY    68  64  88 W9        29.94R

$$

MSZ070-080>082-270400-
SOUTHERN MISSISSIPPI

CITY           SKY/WX    TMP DP  RH WIND       PRES   REMARKS
MCCOMB         CLOUDY    55  50  83 N17       29.95R
GULFPORT       MOCLDY    63  60  90 W5        29.86S
BILOXI         NOT AVBL
PASCAGOULA     CLOUDY    65  63  93 W3        29.86R

$$

COASTAL OBSERVATIONS
LAKE AND NEARSHORE STATIONS

STATION/POSITION TIME  TEMP    WIND        PRES    WAVE
                       AIR SEA DIR/SP/G            HT/PER
                 (UTC) (F)     (DEG/KT/KT) (MB)    (FT/S)
PASCAGOULA       0200   67     220/ 10/ 13 1010.3
WAVELAND YACHT   0200   63 70  280/  3/  6 1011.4
GRAND ISLE       0200   67 71  320/  8/ 10 1011.2
SOUTHWEST PASS   0200   64 51  200/  4/  7 1011.2
NEW CANAL        0200   65     250/  3/  5 1012.0
SHELL BEACH      0200   66 71  290/  8/ 10 1011.4

OFFSHORE STATIONS

STATION/POSITION TIME  TEMP    WIND        PRES    WAVE
                       AIR SEA DIR/SP/G            HT/PER
                 (UTC) (F)     (DEG/KT/KT) (MB)    (FT/S)
64 S DAUPHIN ISL 0250   71 73  190/ 14/ 16 1011.2    3/ 5

$$




USA.gov is the U.S. government's official web portal to all federal, state and local government web resources and services.